Regional Weather Roundup
Issued by NWS

Home | Current Version | Previous Version | Text Only | Print | Product List | Glossary On
Versions: 1 2 3 4 5 6 7 8 9 10 11 12 13 14 15 16 17 18 19 20 21 22 23 24 25 26 27 28 29 30 31 32 33 34 35 36 37 38 39 40 41 42 43 44 45 46 47 48 49 50
000
ASUS45 KREV 231210
RWRNV
NEVADA REGIONAL WEATHER ROUNDUP
NATIONAL WEATHER SERVICE RENO NV
500 AM PDT TUE MAY 23 2017

NOTE: "FAIR" INDICATES FEW OR NO CLOUDS BELOW 12,000 FEET WITH NO
SIGNIFICANT WEATHER AND/OR OBSTRUCTIONS TO VISIBILITY.

NVZ001-003-004-231300-
WESTERN NEVADA

CITY           SKY/WX    TMP DP  RH WIND       PRES   REMARKS
RENO           PTCLDY    58  41  53 NW5       30.18S
6HR MIN TEMP:  56; 6HR MAX TEMP:  71;

CARSON CITY    FAIR      48  37  66 CALM      30.21R
MINDEN         FAIR      45  39  81 CALM      30.21S
FALLON         CLEAR     52  29  41 VRB3      30.14R
6HR MIN TEMP:  51; 6HR MAX TEMP:  66;

LOVELOCK       CLEAR     58  32  37 NE5       30.15R
6HR MIN TEMP:  49; 6HR MAX TEMP:  66;

HAWTHORNE      CLEAR     57  32  38 S3        30.15S
$$

NVZ002-CAZ072-073-231300-
NORTHERN AND CENTRAL SIERRA

CITY           SKY/WX    TMP DP  RH WIND       PRES   REMARKS
S. LAKE TAHOE  CLEAR     41  38  89 CALM      30.28S
6HR MIN TEMP:  41; 6HR MAX TEMP:  53;

TRUCKEE        CLEAR     37  37 100 CALM      30.28S
SQUAW VLY 8000   N/A     39  32  75 CALM        N/A
SUSANVILLE     CLEAR     46  39  76 W3        30.16S
MAMMOTH LAKES  FAIR      47  30  51 W10       30.33S
6HR MIN TEMP:  46; 6HR MAX TEMP:  55;

BRIDGEPORT     FAIR      39  30  70 CALM      30.31S
$$

NVZ030-031-036-231300-
NORTHERN NEVADA

CITY           SKY/WX    TMP DP  RH WIND       PRES   REMARKS
ELKO           PTCLDY    46  39  76 CALM      30.24R
6HR MIN TEMP:  43; 6HR MAX TEMP:  56;

WINNEMUCCA     CLEAR     37  34  89 SE7       30.18S
6HR MIN TEMP:  37; 6HR MAX TEMP:  51;

WENDOVER       PTCLDY    58  38  47 NW3       30.17R
$$

NVZ035-037-231300-
CENTRAL NEVADA

CITY           SKY/WX    TMP DP  RH WIND       PRES   REMARKS
ELY            CLEAR     34  25  69 S10       30.28S
6HR MIN TEMP:  33; 6HR MAX TEMP:  43;

EUREKA           N/A     43  31  62 S6        30.25R
6HR MIN TEMP:  39; 6HR MAX TEMP:  47;

$$

NVZ013-014-231300-
SOUTH CENTRAL NEVADA

CITY           SKY/WX    TMP DP  RH WIND       PRES   REMARKS
TONOPAH        CLEAR     55  32  41 N14       30.20F
6HR MIN TEMP:  55; 6HR MAX TEMP:  68;

$$

NVZ017-020-022-231300-
SOUTHERN NEVADA

CITY           SKY/WX    TMP DP  RH WIND       PRES   REMARKS
LAS VEGAS      CLEAR     75  32  20 S5        29.97R
6HR MIN TEMP:  75; 6HR MAX TEMP:  83;

N. LAS VEGAS   CLEAR     74  34  23 SW6       29.98R
6HR MIN TEMP:  74; 6HR MAX TEMP:  83;

NELLIS AFB     CLEAR     77  32  19 E8        29.97R
6HR MIN TEMP:  76; 6HR MAX TEMP:  82;

HENDERSON      CLEAR     67  38  34 S7        30.02R
6HR MIN TEMP:  67; 6HR MAX TEMP:  80;

MERCURY        CLEAR     67  28  23 E6        30.04R
6HR MIN TEMP:  64; 6HR MAX TEMP:  72;

$$



USA.gov is the U.S. government's official web portal to all federal, state and local government web resources and services.